owner,sensor,date,latitude,longitude,vertical_datum,wind_speed,wind_to_direction,wind_speed_of_gust,qcFlag 
LUMCON,ioos:station:LUMCON:103:1,2004-03-01T00:00:00Z,30.1889,-90.1683,1.0,10.3,100.0,99.0,'11111222,11111222,11144222' 
LUMCON,ioos:station:LUMCON:103:1,2004-03-01T01:00:00Z,30.1889,-90.1683,1.0,9.8,100.0,99.0,'11111222,11111222,11144222' 
LUMCON,ioos:station:LUMCON:103:1,2004-03-01T02:00:00Z,30.1889,-90.1683,1.0,9.8,100.0,99.0,'11111222,11111222,11144222' 
LUMCON,ioos:station:LUMCON:103:1,2004-03-01T03:00:00Z,30.1889,-90.1683,1.0,8.2,110.0,99.0,'11111222,11111222,11144222' 
LUMCON,ioos:station:LUMCON:103:1,2004-03-01T04:00:00Z,30.1889,-90.1683,1.0,7.7,100.0,99.0,'11111222,11111222,11144222' 
LUMCON,ioos:station:LUMCON:103:1,2004-03-01T05:00:00Z,30.1889,-90.1683,1.0,6.7,110.0,99.0,'11111222,11111222,11144222' 
LUMCON,ioos:station:LUMCON:103:1,2004-03-01T06:00:00Z,30.1889,-90.1683,1.0,7.2,180.0,99.0,'11111222,11111222,11144222' 
LUMCON,ioos:station:LUMCON:103:1,2004-03-01T07:00:00Z,30.1889,-90.1683,1.0,5.1,130.0,99.0,'11111222,11111222,11144222' 
LUMCON,ioos:station:LUMCON:103:1,2004-03-01T08:00:00Z,30.1889,-90.1683,1.0,6.7,150.0,99.0,'11111222,11111222,11144222' 
LUMCON,ioos:station:LUMCON:103:1,2004-03-01T09:00:00Z,30.1889,-90.1683,1.0,2.6,150.0,99.0,'11111222,11111222,11144222' 
LUMCON,ioos:station:LUMCON:103:1,2004-03-01T10:00:00Z,30.1889,-90.1683,1.0,3.6,130.0,99.0,'11111222,11111222,11144222' 
LUMCON,ioos:station:LUMCON:103:1,2004-03-01T11:00:00Z,30.1889,-90.1683,1.0,3.6,80.0,99.0,'11111222,11111222,11144222' 
LUMCON,ioos:station:LUMCON:103:1,2004-03-01T12:00:00Z,30.1889,-90.1683,1.0,3.6,110.0,99.0,'11111222,11111222,11144222' 
LUMCON,ioos:station:LUMCON:103:1,2004-03-01T13:00:00Z,30.1889,-90.1683,1.0,5.1,130.0,99.0,'11111222,11111222,11144222' 
LUMCON,ioos:station:LUMCON:103:1,2004-03-01T14:00:00Z,30.1889,-90.1683,1.0,2.6,100.0,99.0,'11111222,11111222,11144222' 
LUMCON,ioos:station:LUMCON:103:1,2004-03-01T16:00:00Z,30.1889,-90.1683,1.0,5.1,110.0,99.0,'11111222,11111222,11144222' 
LUMCON,ioos:station:LUMCON:103:1,2004-03-01T17:00:00Z,30.1889,-90.1683,1.0,2.6,100.0,99.0,'11111222,11111222,11144222' 
LUMCON,ioos:station:LUMCON:103:1,2004-03-01T18:00:00Z,30.1889,-90.1683,1.0,5.7,170.0,99.0,'11111222,11111222,11144222' 
LUMCON,ioos:station:LUMCON:103:1,2004-03-01T20:00:00Z,30.1889,-90.1683,1.0,6.2,180.0,99.0,'11111222,11111222,11144222' 
LUMCON,ioos:station:LUMCON:103:1,2004-03-01T21:00:00Z,30.1889,-90.1683,1.0,5.7,170.0,99.0,'11111222,11111222,11144222' 
LUMCON,ioos:station:LUMCON:103:1,2004-03-01T22:00:00Z,30.1889,-90.1683,1.0,5.7,160.0,99.0,'11111222,11111222,11144222' 
LUMCON,ioos:station:LUMCON:103:1,2004-03-01T23:00:00Z,30.1889,-90.1683,1.0,5.7,150.0,99.0,'11111222,11111222,11144222' 
LUMCON,ioos:station:LUMCON:103:1,2004-03-02T00:00:00Z,30.1889,-90.1683,1.0,3.1,180.0,99.0,'11111222,11111222,11144222' 
LUMCON,ioos:station:LUMCON:103:1,2004-03-02T02:00:00Z,30.1889,-90.1683,1.0,5.1,140.0,99.0,'11111222,11111222,11144222' 
LUMCON,ioos:station:LUMCON:103:1,2004-03-02T03:00:00Z,30.1889,-90.1683,1.0,4.6,150.0,99.0,'11111222,11111222,11144222' 
LUMCON,ioos:station:LUMCON:103:1,2004-03-02T05:00:00Z,30.1889,-90.1683,1.0,2.1,110.0,99.0,'11111222,11111222,11144222' 
LUMCON,ioos:station:LUMCON:103:1,2004-03-02T06:00:00Z,30.1889,-90.1683,1.0,1.5,90.0,99.0,'11111222,11111222,11144222' 
LUMCON,ioos:station:LUMCON:103:1,2004-03-02T07:00:00Z,30.1889,-90.1683,1.0,1.5,80.0,99.0,'11111222,11111222,11144222' 
LUMCON,ioos:station:LUMCON:103:1,2004-03-02T08:00:00Z,30.1889,-90.1683,1.0,1.0,90.0,99.0,'11111222,11111222,11144222' 
LUMCON,ioos:station:LUMCON:103:1,2004-03-02T09:00:00Z,30.1889,-90.1683,1.0,0.5,140.0,99.0,'11111222,11111222,11144222' 
LUMCON,ioos:station:LUMCON:103:1,2004-03-02T10:00:00Z,30.1889,-90.1683,1.0,1.5,80.0,99.0,'11111222,11111222,11144222' 
LUMCON,ioos:station:LUMCON:103:1,2004-03-02T11:00:00Z,30.1889,-90.1683,1.0,2.1,100.0,99.0,'11111222,11111222,11144222' 
LUMCON,ioos:station:LUMCON:103:1,2004-03-02T12:00:00Z,30.1889,-90.1683,1.0,2.6,90.0,99.0,'11111222,11111222,11144222' 
LUMCON,ioos:station:LUMCON:103:1,2004-03-02T13:00:00Z,30.1889,-90.1683,1.0,3.6,110.0,99.0,'11111222,11111222,11144222' 
LUMCON,ioos:station:LUMCON:103:1,2004-03-02T14:00:00Z,30.1889,-90.1683,1.0,3.6,100.0,99.0,'11111222,11111222,11144222' 
LUMCON,ioos:station:LUMCON:103:1,2004-03-02T15:00:00Z,30.1889,-90.1683,1.0,2.1,60.0,99.0,'11111222,11111222,11144222' 
LUMCON,ioos:station:LUMCON:103:1,2004-03-02T17:00:00Z,30.1889,-90.1683,1.0,2.6,40.0,99.0,'11111222,11111222,11144222' 
LUMCON,ioos:station:LUMCON:103:1,2004-03-02T18:00:00Z,30.1889,-90.1683,1.0,3.1,70.0,99.0,'11111222,11111222,11144222' 
LUMCON,ioos:station:LUMCON:103:1,2004-03-02T19:00:00Z,30.1889,-90.1683,1.0,4.6,90.0,99.0,'11111222,11111222,11144222' 
LUMCON,ioos:station:LUMCON:103:1,2004-03-02T20:00:00Z,30.1889,-90.1683,1.0,5.7,90.0,99.0,'11111222,11111222,11144222' 
LUMCON,ioos:station:LUMCON:103:1,2004-03-02T21:00:00Z,30.1889,-90.1683,1.0,5.7,110.0,99.0,'11111222,11111222,11144222' 
LUMCON,ioos:station:LUMCON:103:1,2004-03-02T22:00:00Z,30.1889,-90.1683,1.0,6.7,110.0,99.0,'11111222,11111222,11144222' 
LUMCON,ioos:station:LUMCON:103:1,2004-03-02T23:00:00Z,30.1889,-90.1683,1.0,5.1,110.0,99.0,'11111222,11111222,11144222' 
LUMCON,ioos:station:LUMCON:103:1,2004-03-03T00:00:00Z,30.1889,-90.1683,1.0,5.7,120.0,99.0,'11111222,11111222,11144222' 
LUMCON,ioos:station:LUMCON:103:1,2004-03-03T01:00:00Z,30.1889,-90.1683,1.0,5.7,90.0,99.0,'11111222,11111222,11144222' 
LUMCON,ioos:station:LUMCON:103:1,2004-03-03T03:00:00Z,30.1889,-90.1683,1.0,5.7,90.0,99.0,'11111222,11111222,11144222' 
LUMCON,ioos:station:LUMCON:103:1,2004-03-03T04:00:00Z,30.1889,-90.1683,1.0,5.7,90.0,99.0,'11111222,11111222,11144222' 
LUMCON,ioos:station:LUMCON:103:1,2004-03-03T10:00:00Z,30.1889,-90.1683,1.0,5.1,90.0,99.0,'11111222,11111222,11144222' 
LUMCON,ioos:station:LUMCON:103:1,2004-03-03T11:00:00Z,30.1889,-90.1683,1.0,5.7,100.0,99.0,'11111222,11111222,11144222' 
LUMCON,ioos:station:LUMCON:103:1,2004-03-03T13:00:00Z,30.1889,-90.1683,1.0,6.7,100.0,99.0,'11111222,11111222,11144222' 
LUMCON,ioos:station:LUMCON:103:1,2004-03-03T14:00:00Z,30.1889,-90.1683,1.0,6.2,100.0,99.0,'11111222,11111222,11144222' 
LUMCON,ioos:station:LUMCON:103:1,2004-03-03T22:00:00Z,30.1889,-90.1683,1.0,4.6,110.0,99.0,'11111222,11111222,11144222' 
LUMCON,ioos:station:LUMCON:103:1,2004-03-04T15:00:00Z,30.1889,-90.1683,1.0,5.1,120.0,99.0,'11111222,11111222,11144222' 
LUMCON,ioos:station:LUMCON:103:1,2004-03-04T16:00:00Z,30.1889,-90.1683,1.0,5.1,110.0,99.0,'11111222,11111222,11144222' 
LUMCON,ioos:station:LUMCON:103:1,2004-03-04T17:00:00Z,30.1889,-90.1683,1.0,5.7,120.0,99.0,'11111222,11111222,11144222' 
LUMCON,ioos:station:LUMCON:103:1,2004-03-04T18:00:00Z,30.1889,-90.1683,1.0,5.1,130.0,99.0,'11111222,11111222,11144222' 
LUMCON,ioos:station:LUMCON:103:1,2004-03-04T19:00:00Z,30.1889,-90.1683,1.0,5.1,120.0,99.0,'11111222,11111222,11144222' 
LUMCON,ioos:station:LUMCON:103:1,2004-03-04T20:00:00Z,30.1889,-90.1683,1.0,6.7,150.0,99.0,'11111222,11111222,11144222' 
LUMCON,ioos:station:LUMCON:103:1,2004-03-04T21:00:00Z,30.1889,-90.1683,1.0,3.6,100.0,99.0,'11111222,11111222,11144222' 
LUMCON,ioos:station:LUMCON:103:1,2004-03-04T22:00:00Z,30.1889,-90.1683,1.0,6.7,140.0,99.0,'11111222,11111222,11144222' 
LUMCON,ioos:station:LUMCON:103:1,2004-03-04T23:00:00Z,30.1889,-90.1683,1.0,5.7,110.0,99.0,'11111222,11111222,11144222' 
LUMCON,ioos:station:LUMCON:103:1,2004-03-05T00:00:00Z,30.1889,-90.1683,1.0,5.1,140.0,99.0,'11111222,11111222,11144222' 
LUMCON,ioos:station:LUMCON:103:1,2004-03-05T02:00:00Z,30.1889,-90.1683,1.0,8.2,120.0,99.0,'11111222,11111222,11144222' 
LUMCON,ioos:station:LUMCON:103:1,2004-03-05T03:00:00Z,30.1889,-90.1683,1.0,7.7,120.0,99.0,'11111222,11111222,11144222' 
LUMCON,ioos:station:LUMCON:103:1,2004-03-05T04:00:00Z,30.1889,-90.1683,1.0,5.1,140.0,99.0,'11111222,11111222,11144222' 
LUMCON,ioos:station:LUMCON:103:1,2004-03-05T05:00:00Z,30.1889,-90.1683,1.0,5.7,160.0,99.0,'11111222,11111222,11144222' 
LUMCON,ioos:station:LUMCON:103:1,2004-03-05T06:00:00Z,30.1889,-90.1683,1.0,5.7,170.0,99.0,'11111222,11111222,11144222' 
LUMCON,ioos:station:LUMCON:103:1,2004-03-05T07:00:00Z,30.1889,-90.1683,1.0,5.7,170.0,99.0,'11111222,11111222,11144222' 
LUMCON,ioos:station:LUMCON:103:1,2004-03-05T08:00:00Z,30.1889,-90.1683,1.0,5.1,150.0,99.0,'11111222,11111222,11144222' 
LUMCON,ioos:station:LUMCON:103:1,2004-03-05T09:00:00Z,30.1889,-90.1683,1.0,5.1,150.0,99.0,'11111222,11111222,11144222' 
LUMCON,ioos:station:LUMCON:103:1,2004-03-05T10:00:00Z,30.1889,-90.1683,1.0,3.6,160.0,99.0,'11111222,11111222,11144222' 
LUMCON,ioos:station:LUMCON:103:1,2004-03-05T11:00:00Z,30.1889,-90.1683,1.0,3.1,150.0,99.0,'11111222,11111222,11144222' 
LUMCON,ioos:station:LUMCON:103:1,2004-03-05T12:00:00Z,30.1889,-90.1683,1.0,4.1,160.0,99.0,'11111222,11111222,11144222' 
LUMCON,ioos:station:LUMCON:103:1,2004-03-05T13:00:00Z,30.1889,-90.1683,1.0,5.1,160.0,99.0,'11111222,11111222,11144222' 
LUMCON,ioos:station:LUMCON:103:1,2004-03-05T14:00:00Z,30.1889,-90.1683,1.0,5.1,160.0,99.0,'11111222,11111222,11144222' 
LUMCON,ioos:station:LUMCON:103:1,2004-03-05T15:00:00Z,30.1889,-90.1683,1.0,6.7,160.0,99.0,'11111222,11111222,11144222' 
LUMCON,ioos:station:LUMCON:103:1,2004-03-05T16:00:00Z,30.1889,-90.1683,1.0,7.7,160.0,99.0,'11111222,11111222,11144222' 
LUMCON,ioos:station:LUMCON:103:1,2004-03-05T17:00:00Z,30.1889,-90.1683,1.0,6.2,170.0,99.0,'11111222,11111222,11144222' 
LUMCON,ioos:station:LUMCON:103:1,2004-03-05T18:00:00Z,30.1889,-90.1683,1.0,5.7,170.0,99.0,'11111222,11111222,11144222' 
LUMCON,ioos:station:LUMCON:103:1,2004-03-05T19:00:00Z,30.1889,-90.1683,1.0,6.7,170.0,99.0,'11111222,11111222,11144222' 
LUMCON,ioos:station:LUMCON:103:1,2004-03-05T20:00:00Z,30.1889,-90.1683,1.0,7.2,170.0,99.0,'11111222,11111222,11144222' 
LUMCON,ioos:station:LUMCON:103:1,2004-03-05T21:00:00Z,30.1889,-90.1683,1.0,7.2,160.0,99.0,'11111222,11111222,11144222' 
LUMCON,ioos:station:LUMCON:103:1,2004-03-05T22:00:00Z,30.1889,-90.1683,1.0,8.2,160.0,99.0,'11111222,11111222,11144222' 
LUMCON,ioos:station:LUMCON:103:1,2004-03-05T23:00:00Z,30.1889,-90.1683,1.0,7.7,170.0,99.0,'11111222,11111222,11144222' 
LUMCON,ioos:station:LUMCON:103:1,2004-03-06T00:00:00Z,30.1889,-90.1683,1.0,8.2,170.0,99.0,'11111222,11111222,11144222' 
LUMCON,ioos:station:LUMCON:103:1,2004-03-06T01:00:00Z,30.1889,-90.1683,1.0,8.2,170.0,99.0,'11111222,11111222,11144222' 
LUMCON,ioos:station:LUMCON:103:1,2004-03-06T02:00:00Z,30.1889,-90.1683,1.0,7.2,170.0,99.0,'11111222,11111222,11144222' 
LUMCON,ioos:station:LUMCON:103:1,2004-03-06T03:00:00Z,30.1889,-90.1683,1.0,8.2,180.0,99.0,'11111222,11111222,11144222' 
LUMCON,ioos:station:LUMCON:103:1,2004-03-06T04:00:00Z,30.1889,-90.1683,1.0,7.7,180.0,99.0,'11111222,11111222,11144222' 
LUMCON,ioos:station:LUMCON:103:1,2004-03-06T05:00:00Z,30.1889,-90.1683,1.0,7.7,190.0,99.0,'11111222,11111222,11144222' 
LUMCON,ioos:station:LUMCON:103:1,2004-03-06T06:00:00Z,30.1889,-90.1683,1.0,9.3,190.0,99.0,'11111222,11111222,11144222' 
LUMCON,ioos:station:LUMCON:103:1,2004-03-06T07:00:00Z,30.1889,-90.1683,1.0,8.8,210.0,99.0,'11111222,11111222,11144222' 
LUMCON,ioos:station:LUMCON:103:1,2004-03-06T08:00:00Z,30.1889,-90.1683,1.0,8.2,210.0,99.0,'11111222,11111222,11144222' 
LUMCON,ioos:station:LUMCON:103:1,2004-03-06T09:00:00Z,30.1889,-90.1683,1.0,6.2,230.0,99.0,'11111222,11111222,11144222' 
LUMCON,ioos:station:LUMCON:103:1,2004-03-06T10:00:00Z,30.1889,-90.1683,1.0,5.1,260.0,99.0,'11111222,11111222,11144222' 
LUMCON,ioos:station:LUMCON:103:1,2004-03-06T11:00:00Z,30.1889,-90.1683,1.0,3.6,280.0,99.0,'11111222,11111222,11144222' 
LUMCON,ioos:station:LUMCON:103:1,2004-03-06T14:00:00Z,30.1889,-90.1683,1.0,3.6,280.0,99.0,'11111222,11111222,11144222' 
LUMCON,ioos:station:LUMCON:103:1,2004-03-06T15:00:00Z,30.1889,-90.1683,1.0,3.6,270.0,99.0,'11111222,11111222,11144222' 
LUMCON,ioos:station:LUMCON:103:1,2004-03-06T16:00:00Z,30.1889,-90.1683,1.0,3.1,290.0,99.0,'11111222,11111222,11144222' 
LUMCON,ioos:station:LUMCON:103:1,2004-03-06T17:00:00Z,30.1889,-90.1683,1.0,3.6,310.0,99.0,'11111222,11111222,11144222' 
LUMCON,ioos:station:LUMCON:103:1,2004-03-06T18:00:00Z,30.1889,-90.1683,1.0,5.1,270.0,99.0,'11111222,11111222,11144222' 
LUMCON,ioos:station:LUMCON:103:1,2004-03-06T19:00:00Z,30.1889,-90.1683,1.0,4.6,270.0,99.0,'11111222,11111222,11144222' 
LUMCON,ioos:station:LUMCON:103:1,2004-03-06T20:00:00Z,30.1889,-90.1683,1.0,5.1,230.0,99.0,'11111222,11111222,11144222' 
LUMCON,ioos:station:LUMCON:103:1,2004-03-06T21:00:00Z,30.1889,-90.1683,1.0,5.7,230.0,99.0,'11111222,11111222,11144222' 
LUMCON,ioos:station:LUMCON:103:1,2004-03-06T22:00:00Z,30.1889,-90.1683,1.0,6.2,230.0,99.0,'11111222,11111222,11144222' 
LUMCON,ioos:station:LUMCON:103:1,2004-03-06T23:00:00Z,30.1889,-90.1683,1.0,4.1,220.0,99.0,'11111222,11111222,11144222' 
LUMCON,ioos:station:LUMCON:103:1,2004-03-07T00:00:00Z,30.1889,-90.1683,1.0,4.1,240.0,99.0,'11111222,11111222,11144222' 
LUMCON,ioos:station:LUMCON:103:1,2004-03-07T01:00:00Z,30.1889,-90.1683,1.0,3.6,240.0,99.0,'11111222,11111222,11144222' 
LUMCON,ioos:station:LUMCON:103:1,2004-03-07T02:00:00Z,30.1889,-90.1683,1.0,2.6,240.0,99.0,'11111222,11111222,11144222' 
LUMCON,ioos:station:LUMCON:103:1,2004-03-07T03:00:00Z,30.1889,-90.1683,1.0,3.6,230.0,99.0,'11111222,11111222,11144222' 
LUMCON,ioos:station:LUMCON:103:1,2004-03-07T04:00:00Z,30.1889,-90.1683,1.0,3.1,270.0,99.0,'11111222,11111222,11144222' 
LUMCON,ioos:station:LUMCON:103:1,2004-03-07T05:00:00Z,30.1889,-90.1683,1.0,3.1,270.0,99.0,'11111222,11111222,11144222' 
LUMCON,ioos:station:LUMCON:103:1,2004-03-07T06:00:00Z,30.1889,-90.1683,1.0,2.6,260.0,99.0,'11111222,11111222,11144222' 
LUMCON,ioos:station:LUMCON:103:1,2004-03-07T07:00:00Z,30.1889,-90.1683,1.0,1.5,240.0,99.0,'11111222,11111222,11144222' 
LUMCON,ioos:station:LUMCON:103:1,2004-03-07T08:00:00Z,30.1889,-90.1683,1.0,2.6,250.0,99.0,'11111222,11111222,11144222' 
LUMCON,ioos:station:LUMCON:103:1,2004-03-07T09:00:00Z,30.1889,-90.1683,1.0,4.1,270.0,99.0,'11111222,11111222,11144222' 
LUMCON,ioos:station:LUMCON:103:1,2004-03-07T10:00:00Z,30.1889,-90.1683,1.0,3.6,290.0,99.0,'11111222,11111222,11144222' 
LUMCON,ioos:station:LUMCON:103:1,2004-03-07T11:00:00Z,30.1889,-90.1683,1.0,3.6,320.0,99.0,'11111222,11111222,11144222' 
LUMCON,ioos:station:LUMCON:103:1,2004-03-07T12:00:00Z,30.1889,-90.1683,1.0,3.1,330.0,99.0,'11111222,11111222,11144222' 
LUMCON,ioos:station:LUMCON:103:1,2004-03-07T13:00:00Z,30.1889,-90.1683,1.0,2.6,310.0,99.0,'11111222,11111222,11144222' 
LUMCON,ioos:station:LUMCON:103:1,2004-03-07T14:00:00Z,30.1889,-90.1683,1.0,2.6,330.0,99.0,'11111222,11111222,11144222' 
LUMCON,ioos:station:LUMCON:103:1,2004-03-07T15:00:00Z,30.1889,-90.1683,1.0,3.6,340.0,99.0,'11111222,11111222,11144222' 
LUMCON,ioos:station:LUMCON:103:1,2004-03-07T16:00:00Z,30.1889,-90.1683,1.0,5.7,330.0,99.0,'11111222,11111222,11144222' 
LUMCON,ioos:station:LUMCON:103:1,2004-03-07T17:00:00Z,30.1889,-90.1683,1.0,7.2,350.0,99.0,'11111222,11111222,11144222' 
LUMCON,ioos:station:LUMCON:103:1,2004-03-07T18:00:00Z,30.1889,-90.1683,1.0,4.1,330.0,99.0,'11111222,11111222,11144222' 
LUMCON,ioos:station:LUMCON:103:1,2004-03-07T19:00:00Z,30.1889,-90.1683,1.0,3.6,330.0,99.0,'11111222,11111222,11144222' 
LUMCON,ioos:station:LUMCON:103:1,2004-03-07T20:00:00Z,30.1889,-90.1683,1.0,2.6,330.0,99.0,'11111222,11111222,11144222' 
LUMCON,ioos:station:LUMCON:103:1,2004-03-07T21:00:00Z,30.1889,-90.1683,1.0,4.6,170.0,99.0,'11111222,11111222,11144222' 
LUMCON,ioos:station:LUMCON:103:1,2004-03-07T22:00:00Z,30.1889,-90.1683,1.0,5.1,160.0,99.0,'11111222,11111222,11144222' 
LUMCON,ioos:station:LUMCON:103:1,2004-03-07T23:00:00Z,30.1889,-90.1683,1.0,3.6,170.0,99.0,'11111222,11111222,11144222' 
LUMCON,ioos:station:LUMCON:103:1,2004-03-08T00:00:00Z,30.1889,-90.1683,1.0,2.1,200.0,99.0,'11111222,11111222,11144222' 
LUMCON,ioos:station:LUMCON:103:1,2004-03-08T01:00:00Z,30.1889,-90.1683,1.0,2.1,350.0,99.0,'11111222,11111222,11144222' 
LUMCON,ioos:station:LUMCON:103:1,2004-03-08T02:00:00Z,30.1889,-90.1683,1.0,4.6,350.0,99.0,'11111222,11111222,11144222' 
LUMCON,ioos:station:LUMCON:103:1,2004-03-08T03:00:00Z,30.1889,-90.1683,1.0,6.2,360.0,99.0,'11111222,11144222,11144222' 
LUMCON,ioos:station:LUMCON:103:1,2004-03-08T04:00:00Z,30.1889,-90.1683,1.0,3.6,340.0,99.0,'11111222,11111222,11144222' 
LUMCON,ioos:station:LUMCON:103:1,2004-03-08T05:00:00Z,30.1889,-90.1683,1.0,3.1,340.0,99.0,'11111222,11111222,11144222' 
LUMCON,ioos:station:LUMCON:103:1,2004-03-08T14:00:00Z,30.1889,-90.1683,1.0,3.6,360.0,99.0,'11111222,11144222,11144222' 
LUMCON,ioos:station:LUMCON:103:1,2004-03-08T15:00:00Z,30.1889,-90.1683,1.0,6.2,10.0,99.0,'11111222,11111222,11144222' 
LUMCON,ioos:station:LUMCON:103:1,2004-03-08T16:00:00Z,30.1889,-90.1683,1.0,6.7,10.0,99.0,'11111222,11111222,11144222' 
LUMCON,ioos:station:LUMCON:103:1,2004-03-08T17:00:00Z,30.1889,-90.1683,1.0,4.6,350.0,99.0,'11111222,11111222,11144222' 
LUMCON,ioos:station:LUMCON:103:1,2004-03-08T18:00:00Z,30.1889,-90.1683,1.0,3.6,360.0,99.0,'11111222,11144222,11144222' 
LUMCON,ioos:station:LUMCON:103:1,2004-03-08T19:00:00Z,30.1889,-90.1683,1.0,4.1,350.0,99.0,'11111222,11111222,11144222' 
LUMCON,ioos:station:LUMCON:103:1,2004-03-08T20:00:00Z,30.1889,-90.1683,1.0,4.6,320.0,99.0,'11111222,11111222,11144222' 
LUMCON,ioos:station:LUMCON:103:1,2004-03-08T21:00:00Z,30.1889,-90.1683,1.0,3.1,350.0,99.0,'11111222,11111222,11144222' 
LUMCON,ioos:station:LUMCON:103:1,2004-03-08T22:00:00Z,30.1889,-90.1683,1.0,4.1,350.0,99.0,'11111222,11111222,11144222' 
LUMCON,ioos:station:LUMCON:103:1,2004-03-08T23:00:00Z,30.1889,-90.1683,1.0,4.1,330.0,99.0,'11111222,11111222,11144222' 
LUMCON,ioos:station:LUMCON:103:1,2004-03-09T00:00:00Z,30.1889,-90.1683,1.0,3.6,340.0,99.0,'11111222,11111222,11144222' 
LUMCON,ioos:station:LUMCON:103:1,2004-03-09T01:00:00Z,30.1889,-90.1683,1.0,2.6,350.0,99.0,'11111222,11111222,11144222' 
LUMCON,ioos:station:LUMCON:103:1,2004-03-09T02:00:00Z,30.1889,-90.1683,1.0,2.1,340.0,99.0,'11111222,11111222,11144222' 
LUMCON,ioos:station:LUMCON:103:1,2004-03-09T03:00:00Z,30.1889,-90.1683,1.0,1.5,320.0,99.0,'11111222,11111222,11144222' 
LUMCON,ioos:station:LUMCON:103:1,2004-03-09T04:00:00Z,30.1889,-90.1683,1.0,3.1,280.0,99.0,'11111222,11111222,11144222' 
LUMCON,ioos:station:LUMCON:103:1,2004-03-09T05:00:00Z,30.1889,-90.1683,1.0,3.1,310.0,99.0,'11111222,11111222,11144222' 
LUMCON,ioos:station:LUMCON:103:1,2004-03-09T06:00:00Z,30.1889,-90.1683,1.0,3.1,320.0,99.0,'11111222,11111222,11144222' 
LUMCON,ioos:station:LUMCON:103:1,2004-03-09T07:00:00Z,30.1889,-90.1683,1.0,3.1,300.0,99.0,'11111222,11111222,11144222' 
LUMCON,ioos:station:LUMCON:103:1,2004-03-09T08:00:00Z,30.1889,-90.1683,1.0,2.1,280.0,99.0,'11111222,11111222,11144222' 
LUMCON,ioos:station:LUMCON:103:1,2004-03-09T09:00:00Z,30.1889,-90.1683,1.0,3.6,260.0,99.0,'11111222,11111222,11144222' 
LUMCON,ioos:station:LUMCON:103:1,2004-03-09T10:00:00Z,30.1889,-90.1683,1.0,3.1,260.0,99.0,'11111222,11111222,11144222' 
LUMCON,ioos:station:LUMCON:103:1,2004-03-09T11:00:00Z,30.1889,-90.1683,1.0,4.1,270.0,99.0,'11111222,11111222,11144222' 
LUMCON,ioos:station:LUMCON:103:1,2004-03-09T12:00:00Z,30.1889,-90.1683,1.0,4.6,260.0,99.0,'11111222,11111222,11144222' 
LUMCON,ioos:station:LUMCON:103:1,2004-03-09T13:00:00Z,30.1889,-90.1683,1.0,4.1,270.0,99.0,'11111222,11111222,11144222' 
LUMCON,ioos:station:LUMCON:103:1,2004-03-09T14:00:00Z,30.1889,-90.1683,1.0,7.2,260.0,99.0,'11111222,11111222,11144222' 
LUMCON,ioos:station:LUMCON:103:1,2004-03-09T15:00:00Z,30.1889,-90.1683,1.0,6.2,260.0,99.0,'11111222,11111222,11144222' 
LUMCON,ioos:station:LUMCON:103:1,2004-03-09T16:00:00Z,30.1889,-90.1683,1.0,8.8,290.0,99.0,'11111222,11111222,11144222' 
LUMCON,ioos:station:LUMCON:103:1,2004-03-09T17:00:00Z,30.1889,-90.1683,1.0,6.7,300.0,99.0,'11111222,11111222,11144222' 
LUMCON,ioos:station:LUMCON:103:1,2004-03-09T18:00:00Z,30.1889,-90.1683,1.0,6.2,300.0,99.0,'11111222,11111222,11144222' 
LUMCON,ioos:station:LUMCON:103:1,2004-03-09T19:00:00Z,30.1889,-90.1683,1.0,6.2,310.0,99.0,'11111222,11111222,11144222' 
LUMCON,ioos:station:LUMCON:103:1,2004-03-09T20:00:00Z,30.1889,-90.1683,1.0,9.8,290.0,99.0,'11111222,11111222,11144222' 
LUMCON,ioos:station:LUMCON:103:1,2004-03-09T21:00:00Z,30.1889,-90.1683,1.0,8.2,320.0,99.0,'11111222,11111222,11144222' 
LUMCON,ioos:station:LUMCON:103:1,2004-03-09T22:00:00Z,30.1889,-90.1683,1.0,9.8,330.0,99.0,'11111222,11111222,11144222' 
LUMCON,ioos:station:LUMCON:103:1,2004-03-09T23:00:00Z,30.1889,-90.1683,1.0,11.8,350.0,99.0,'11111222,11111222,11144222' 
LUMCON,ioos:station:LUMCON:103:1,2004-03-10T00:00:00Z,30.1889,-90.1683,1.0,9.8,360.0,99.0,'11111222,11144222,11144222' 
LUMCON,ioos:station:LUMCON:103:1,2004-03-10T01:00:00Z,30.1889,-90.1683,1.0,8.2,360.0,99.0,'11111222,11144222,11144222' 
LUMCON,ioos:station:LUMCON:103:1,2004-03-10T02:00:00Z,30.1889,-90.1683,1.0,4.6,350.0,99.0,'11111222,11111222,11144222' 
LUMCON,ioos:station:LUMCON:103:1,2004-03-10T03:00:00Z,30.1889,-90.1683,1.0,7.7,10.0,99.0,'11111222,11111222,11144222' 
LUMCON,ioos:station:LUMCON:103:1,2004-03-10T04:00:00Z,30.1889,-90.1683,1.0,7.7,0.0,99.0,'11111222,11111222,11144222' 
LUMCON,ioos:station:LUMCON:103:1,2004-03-10T05:00:00Z,30.1889,-90.1683,1.0,6.2,10.0,99.0,'11111222,11111222,11144222' 
LUMCON,ioos:station:LUMCON:103:1,2004-03-10T06:00:00Z,30.1889,-90.1683,1.0,6.7,10.0,99.0,'11111222,11111222,11144222' 
LUMCON,ioos:station:LUMCON:103:1,2004-03-10T07:00:00Z,30.1889,-90.1683,1.0,4.1,10.0,99.0,'11111222,11111222,11144222' 
LUMCON,ioos:station:LUMCON:103:1,2004-03-10T08:00:00Z,30.1889,-90.1683,1.0,5.1,0.0,99.0,'11111222,11111222,11144222' 
LUMCON,ioos:station:LUMCON:103:1,2004-03-10T09:00:00Z,30.1889,-90.1683,1.0,6.7,10.0,99.0,'11111222,11111222,11144222' 
LUMCON,ioos:station:LUMCON:103:1,2004-03-10T10:00:00Z,30.1889,-90.1683,1.0,7.2,10.0,99.0,'11111222,11111222,11144222' 
LUMCON,ioos:station:LUMCON:103:1,2004-03-10T11:00:00Z,30.1889,-90.1683,1.0,5.7,10.0,99.0,'11111222,11111222,11144222' 
LUMCON,ioos:station:LUMCON:103:1,2004-03-10T12:00:00Z,30.1889,-90.1683,1.0,4.6,20.0,99.0,'11111222,11111222,11144222' 
LUMCON,ioos:station:LUMCON:103:1,2004-03-10T13:00:00Z,30.1889,-90.1683,1.0,5.7,20.0,99.0,'11111222,11111222,11144222' 
LUMCON,ioos:station:LUMCON:103:1,2004-03-10T14:00:00Z,30.1889,-90.1683,1.0,8.2,40.0,99.0,'11111222,11111222,11144222' 
LUMCON,ioos:station:LUMCON:103:1,2004-03-10T15:00:00Z,30.1889,-90.1683,1.0,6.2,40.0,99.0,'11111222,11111222,11144222' 
LUMCON,ioos:station:LUMCON:103:1,2004-03-10T16:00:00Z,30.1889,-90.1683,1.0,2.6,50.0,99.0,'11111222,11111222,11144222' 
LUMCON,ioos:station:LUMCON:103:1,2004-03-10T17:00:00Z,30.1889,-90.1683,1.0,2.6,110.0,99.0,'11111222,11111222,11144222' 
LUMCON,ioos:station:LUMCON:103:1,2004-03-10T18:00:00Z,30.1889,-90.1683,1.0,3.1,130.0,99.0,'11111222,11111222,11144222' 
LUMCON,ioos:station:LUMCON:103:1,2004-03-10T19:00:00Z,30.1889,-90.1683,1.0,3.1,130.0,99.0,'11111222,11111222,11144222' 
LUMCON,ioos:station:LUMCON:103:1,2004-03-10T20:00:00Z,30.1889,-90.1683,1.0,4.6,160.0,99.0,'11111222,11111222,11144222' 
LUMCON,ioos:station:LUMCON:103:1,2004-03-10T21:00:00Z,30.1889,-90.1683,1.0,5.1,190.0,99.0,'11111222,11111222,11144222' 
LUMCON,ioos:station:LUMCON:103:1,2004-03-10T22:00:00Z,30.1889,-90.1683,1.0,4.6,190.0,99.0,'11111222,11111222,11144222' 
LUMCON,ioos:station:LUMCON:103:1,2004-03-10T23:00:00Z,30.1889,-90.1683,1.0,4.6,180.0,99.0,'11111222,11111222,11144222' 
LUMCON,ioos:station:LUMCON:103:1,2004-03-11T00:00:00Z,30.1889,-90.1683,1.0,3.6,180.0,99.0,'11111222,11111222,11144222' 
LUMCON,ioos:station:LUMCON:103:1,2004-03-11T01:00:00Z,30.1889,-90.1683,1.0,3.1,180.0,99.0,'11111222,11111222,11144222' 
LUMCON,ioos:station:LUMCON:103:1,2004-03-11T02:00:00Z,30.1889,-90.1683,1.0,3.1,170.0,99.0,'11111222,11111222,11144222' 
LUMCON,ioos:station:LUMCON:103:1,2004-03-11T03:00:00Z,30.1889,-90.1683,1.0,6.2,160.0,99.0,'11111222,11111222,11144222' 
LUMCON,ioos:station:LUMCON:103:1,2004-03-11T04:00:00Z,30.1889,-90.1683,1.0,5.7,170.0,99.0,'11111222,11111222,11144222' 